Regional Weather Roundup
Issued by NWS Newport/Morehead, NC

Current Version | Previous Version | Graphics & Text | Print | Product List | Glossary On
Versions: 1 2 3 4 5 6 7 8 9 10 11 12 13 14 15 16 17 18 19 20 21 22 23 24 25 26 27 28 29 30 31 32 33 34 35 36 37 38 39 40 41 42 43 44 45 46 47 48 49 50
000 ASUS42 KMHX 301213 RWRMHX WEATHER ROUNDUP FOR EASTERN NORTH CAROLINA NATIONAL WEATHER SERVICE NEWPORT/MOREHEAD CITY NC 800 AM EDT SUN AUG 30 2015 NOTE: "FAIR" INDICATES FEW OR NO CLOUDS BELOW 12,000 FEET WITH NO SIGNIFICANT WEATHER AND/OR OBSTRUCTIONS TO VISIBILITY NCZ015>017-031-032-045>047-102-103-301300- NORTH COAST CITY SKY/WX TMP DP RH WIND PRES REMARKS EDENTON MOSUNNY 67 65 94 N3 30.15R ELIZABETH CITY SUNNY 70 65 84 CALM 30.15R KITTY HAWK SUNNY 76 72 86 N3 30.12R MANTEO SUNNY 76 72 88 N6 30.13S $$ NCZ045>047-081-094-103-104-301300- CENTRAL COAST CITY SKY/WX TMP DP RH WIND PRES REMARKS FRISCO CLOUDY 77 73 87 N5 30.13R SWANQUARTER NOT AVBL $$ NCZ095-097-098-100-101-301300- SOUTHERN COAST CITY SKY/WX TMP DP RH WIND PRES REMARKS BEAUFORT MOSUNNY 73 70 90 NE6 30.14R CEDAR ISLAND NOT AVBL JACKSONVILLE MOSUNNY 69 65 86 N3 30.14R PINEY ISLAND MOSUNNY N/A N/A N/A N8 30.13S WILMINGTON CLOUDY 72 66 81 CALM 30.15R $$ NCZ011>013-027>030-043-044-078>080-089-090>093-098-301300- COASTAL PLAIN CITY SKY/WX TMP DP RH WIND PRES REMARKS AHOSKIE MOSUNNY 63 61 93 CALM 30.17R CLINTON MOSUNNY 66 65 95 CALM 30.16R ELIZABETHTOWN PTSUNNY 67 64 91 CALM 30.15R GOLDSBORO MOSUNNY 68 64 86 CALM 30.15R GREENVILLE MOSUNNY 66 66 100 CALM 30.17S FOG HAVELOCK MOSUNNY 73 68 84 N6 30.16R KENANSVILLE N/A 66 65 96 CALM 30.16S KINSTON MOSUNNY 68 66 94 CALM 30.17R NEW BERN MOSUNNY 70 66 87 N3 30.17R RICHLANDS MOSUNNY 66 61 82 CALM 30.15S ROCKY MOUNT MOSUNNY 68 65 90 CALM 30.16S WASHINGTON SUNNY 67 64 91 CALM 30.16R WHITEVILLE CLOUDY 69 66 89 CALM 30.14R $$ AMZ130-135-150-152-154-156-158-170-250-252-270-ANZ085-086-088-633-658-670-301300- MARINE OBSERVATIONS STATION/POSITION TIME TEMP WIND PRES WAVE SWELL AIR SEA DIR/SP/G HT/PER HT/PER (UTC) (F) (DEG/KT/KT) (MB) (FT/S) (FT/S) CHESAPEAKE LIGHT 1200 77 360/ 6/ 7 1021.1 64 E VA BEACH 1150 78 76 30/ 8/ 10 1019.6 4/11 3/11 DUCK NOT AVBL 2 E DUCK 1111 78 N/A 4/10 2/11 OREGON INLET NOT AVBL 13E OREGON INLT 1200 78 N/A 4/11 2/11 HATTERAS CG NOT AVBL DIAMOND BUOY 1150 78 83 330/ 8/ 12 1020.0 4/10 3/10 CAPE LOOKOUT 1200 75 350/ 11/ 13 1020.0 BEAUFORT LAB NOT AVBL 30 SE NEW RVR IN 1108 78 81 20/ 6/ 8 1020.1 30 SE NEW RVR IN 1125 81 N/A 3/11 2/11 27 SE WRIGHTSVLE 1100 76 81 20/ 4/ 6 N/A 5 SE WRIGHTSVLE 1108 78 82 30/ 6/ 8 1020.1 225 S CAPE HAT 1150 84 83 230/ 4/ 6 1020.4 4/11 3/11 41 SE CHARLESTON 1150 79 85 40/ 4/ 6 1018.9 4/11 3/11 $$

USA.gov is the U.S. government's official web portal to all federal, state and local government web resources and services.